Location: Unspecified
(22.6800°N, 112.2000°E)
Time: 13:09:20
(UTC+08:00)

Transit 2A - Pass Details

Date: 05 August 2021
Orbit: 594 x 964 km, 66.7° (Epoch: 21 September)

Event Time Altitude Azimuth Distance (km) Brightness Sun altitude
Rises 14:45:48 0° 349° (N) 3,390 9.4 59.3°
Reaches altitude 10° 14:48:21 10° 357° (N) 2,508 8.8 58.7°
Maximum altitude 14:53:47 38° 65° (ENE) 1,360 7.5 57.4°
Drops below altitude 10° 14:59:32 10° 132° (SE) 2,664 8.7 56.1°
Sets 15:02:19 0° 139° (SE) 3,626 9.3 55.5°
